Polar Endurance — WDG2085 — position and weather

sailwx.info

Track history (hours):
 
Tides and Currents Weather Stations Pressure Air Temp Water Temp Dewpoint Dewpoint Depression Visibility Wind Speed Wind Dir Waves Ship Positions

Polar Endurance

Owner: Dunlap Towing Co., LaConner, WA. More information available from US FCC via Universal Licensing System and Coast Guard Vessel Documentation Center.

Last reported at 2014-Nov-28 07:04 UTC. Time now 2014-Nov-28 16:57 UTC.
Position N 50°29' W 126°26'.

Length 37 m.

Type: Towing. MMSI: 303144000.

Date/timePositionNaut miles runAvg speedWind from/ knotsBaromVisibWave heightAir tempDewpointWater temp
2014-Nov-28 07:04N 50°29' W 126°26'4 5.9
2014-Nov-28 06:28N 50°30' W 126°31'7 6.8
2014-Nov-28 05:26N 50°33' W 126°41'7 7.0
2014-Nov-28 04:24N 50°38' W 126°48'8 8.7
2014-Nov-28 03:27N 50°44' W 126°58'9 9.5
2014-Nov-28 02:33N 50°49' W 127°09'9 9.4
2014-Nov-28 01:33N 50°54' W 127°22'9 9.3
2014-Nov-28 00:33N 50°59' W 127°34'10 9.6
2014-Nov-27 23:33N 51°06' W 127°44'  
2014-Nov-25 05:33N 58°17' W 135°42'9 9.1
2014-Nov-25 04:33N 58°16' W 135°59'182 7.1
2014-Nov-24 03:00N 59°06' W 141°36'163 6.8 140 / 20 6.1 10.0
2014-Nov-23 03:00N 60°06' W 146°36'   140 / 10987.0 5.4
Track history (hours):
 
Tides and Currents Weather Stations Pressure Air Temp Water Temp Dewpoint Dewpoint Depression Visibility Wind Speed Wind Dir Waves Ship Positions

Polar Endurance

Owner: Dunlap Towing Co., LaConner, WA. More information available from US FCC via Universal Licensing System and Coast Guard Vessel Documentation Center.

Last reported at 2014-Nov-28 07:04 UTC. Time now 2014-Nov-28 16:57 UTC.
Position N 50°29' W 126°26'.

Length 37 m.

Type: Towing. MMSI: 303144000.

Date/timePositionNaut miles runAvg speedWind from/ knotsBaromVisibWave heightAir tempDewpointWater temp
2014-Nov-28 07:04N 50°29' W 126°26'4 5.9
2014-Nov-28 06:28N 50°30' W 126°31'7 6.8
2014-Nov-28 05:26N 50°33' W 126°41'7 7.0
2014-Nov-28 04:24N 50°38' W 126°48'8 8.7
2014-Nov-28 03:27N 50°44' W 126°58'9 9.5
2014-Nov-28 02:33N 50°49' W 127°09'9 9.4
2014-Nov-28 01:33N 50°54' W 127°22'9 9.3
2014-Nov-28 00:33N 50°59' W 127°34'10 9.6
2014-Nov-27 23:33N 51°06' W 127°44'  
2014-Nov-25 05:33N 58°17' W 135°42'9 9.1
2014-Nov-25 04:33N 58°16' W 135°59'182 7.1
2014-Nov-24 03:00N 59°06' W 141°36'163 6.8 140 / 20 6.1 10.0
2014-Nov-23 03:00N 60°06' W 146°36'   140 / 10987.0 5.4

Dump ship's entire track history